Location: Rioux
(40.7500°S, 175.7500°E)
Time: 11:13:39
(UTC+00:00)

USA 215 - Pass Details

Date: 12 June 2024
Orbit: 1100 x 1107 km, 123.0° (Epoch: 22 April)

Event Time Altitude Azimuth Distance (km) Brightness Sun altitude
Rises 17:08:40 0° 28° (NNE) 3,907 6.6 -27.5°
Reaches altitude 10° 17:11:15 10° 22° (NNE) 2,955 5.8 -27.0°
Maximum altitude 17:17:28 46° 310° (NW) 1,446 3.6 -25.9°
Enters shadow 17:17:48 46° 301° (WNW) 1,452 3.5 -25.8°
